Regional Weather Roundup
Issued by NWS Little Rock, AR

Home | Current Version | Previous Version | Text Only | Print | Product List | Glossary On
Versions: 1 2 3 4 5 6 7 8 9 10 11 12 13 14 15 16 17 18 19 20 21 22 23 24 25 26 27 28 29 30 31 32 33 34 35 36 37 38 39 40 41 42 43 44 45 46 47 48 49
000
ASUS44 KLZK 010905
RWRLZK

WEATHER ROUNDUP FOR ARKANSAS
NATIONAL WEATHER SERVICE LITTLE ROCK AR
300 AM CST SUN MAR 01 2015

NOTE: "FAIR" INDICATES FEW OR NO CLOUDS BELOW 12,000 FEET WITH NO
SIGNIFICANT WEATHER AND/OR OBSTRUCTIONS TO VISIBILITY.

ARZ001-003-010-029-011000-
NORTHWEST ARKANSAS

CITY           SKY/WX    TMP DP  RH WIND       PRES   REMARKS
FAYETTEVILLE   CLOUDY    31  31 100 S3        30.30F FOG
FORT SMITH     CLOUDY    32  30  92 NE7       30.35S FOG     WCI  26
HARRISON       FRZ RAIN  29  28  96 SE7       30.29F FOG     WCI  22
BENTONVILLE    CLOUDY    30  27  86 CALM      30.30F
ROGERS         FRZ RAIN  30  29  96 CALM      30.29F FOG
SILOAM SPGS    CLOUDY    30  25  80 CALM      30.31F
HIGHFILL       CLOUDY    31  30  96 CALM      30.29F FOG
$$

ARZ004-005-016-011000-
NORTH CENTRAL ARKANSAS

CITY           SKY/WX    TMP DP  RH WIND       PRES   REMARKS
BATESVILLE     CLOUDY    30  27  86 CALM      30.36F
FLIPPIN        CLOUDY    28  25  86 CALM      30.32F
MTN HOME       MIX PCPN  29  28  96 S5        30.32F FOG     WCI  24
$$

ARZ040-041-011000-
WEST CENTRAL ARKANSAS

CITY           SKY/WX    TMP DP  RH WIND       PRES   REMARKS
MENA           CLOUDY    34  34 100 CALM      30.33S
MOUNT IDA      CLOUDY    33  31  92 CALM      30.32R FOG
$$

ARZ009-017-025-026-028-011000-
NORTHEAST ARKANSAS

CITY           SKY/WX    TMP DP  RH WIND       PRES   REMARKS
CORNING        CLOUDY    32  27  80 N6        30.38F WCI  26
JONESBORO      CLOUDY    32  25  75 N6        30.36F WCI  26
NEWPORT        FLURRIES  31  27  85 N8        30.39F WCI  24
WALNUT RIDGE   CLOUDY    30  25  80 NW8       30.39R WCI  23
BLYTHEVILLE    CLOUDY    33  27  78 NE6       30.36F WCI  28
$$

ARZ022-023-033-042-044-011000-
CENTRAL ARKANSAS

CITY           SKY/WX    TMP DP  RH WIND       PRES   REMARKS
LITTLE ROCK    DRIZZLE   33  26  75 N7        30.35F WCI  27
N LITTLE ROCK    N/A     31  29  94 N6        30.35F WCI  25
JACKSONVILLE   DRIZZLE   32  27  80 NW5       30.36S WCI  27
SEARCY         CLOUDY    31  27  85 NW3       30.38S
HOT SPRINGS    LGT RAIN  34  29  82 E3        30.34S
RUSSELLVILLE   CLOUDY    32  31  96 SW3       30.35F FOG
CLINTON        LGT RAIN  32  32 100 CALM      30.36F
$$

ARZ036-011000-
EAST ARKANSAS

CITY           SKY/WX    TMP DP  RH WIND       PRES   REMARKS
WEST MEMPHIS   CLOUDY    34  28  79 N6        30.34F WCI  29
$$

ARZ050-053-066-070-073-011000-
SOUTHWEST ARKANSAS

CITY           SKY/WX    TMP DP  RH WIND       PRES   REMARKS
ARKADELPHIA    LGT RAIN  34  32  92 NE6       30.34F WCI  29
CAMDEN         CLOUDY    36  28  75 MISG      30.34R
TEXARKANA      CLOUDY    35  31  85 NE3       30.34R
EL DORADO      CLOUDY    38  29  70 N3        30.32R
DE QUEEN       CLOUDY    36  34  92 CALM      30.33S FOG
$$

ARZ056-057-069-011000-
SOUTHEAST ARKANSAS

CITY           SKY/WX    TMP DP  RH WIND       PRES   REMARKS
PINE BLUFF     CLOUDY    32  27  81 N9        30.34F WCI  24
STUTTGART      CLOUDY    32  25  74 N8        30.34F WCI  25
MONTICELLO     LGT RAIN  36  30  79 NE10      30.30F

$$




USA.gov is the U.S. government's official web portal to all federal, state and local government web resources and services.